Regional Weather Roundup
Issued by NWS

Home | Current Version | Previous Version | Text Only | Print | Product List | Glossary On
Versions: 1 2 3 4 5 6 7 8 9 10 11 12 13 14 15 16 17 18 19 20 21 22 23 24 25 26 27 28 29 30 31 32 33 34 35 36 37 38 39 40 41 42 43 44 45 46 47 48 49 50
000
ASUS43 KTOP 012059
RWRKS

WEATHER ROUNDUP FOR KANSAS
NATIONAL WEATHER SERVICE GOODLAND KS
400 PM CDT WED JUL 01 2015

NOTE:  "FAIR" INDICATES FEW OR NO CLOUDS BELOW 12,000 FEET WITH NO
SIGNIFICANT WEATHER AND/OR OBSTRUCTIONS TO VISIBILITY.

KSZ001>006-013>018-027>032-041>047-012200-
NORTHWEST KANSAS

CITY           SKY/WX    TMP DP  RH WIND       PRES   REMARKS
GOODLAND       SUNNY     95  48  20 N12       29.99S
HAYS           SUNNY     99  61  28 N22       29.85S HX  99
HILL CITY      SUNNY    100  57  23 NE14G20   29.88F HX  99
RUSSELL        SUNNY     98  62  30 NE18      29.82S HX  99
$$

KSZ061>065-074>080-084>089-012200-
SOUTHWEST KANSAS

CITY           SKY/WX    TMP DP  RH WIND       PRES   REMARKS
DODGE CITY     SUNNY     97  58  27 NE14G21   29.88R HX  96
ELKHART          N/A    N/A N/A N/A MISG        N/A
GARDEN CITY    SUNNY     97  56  25 NE13G24   29.90S HX  95
GREAT BEND     SUNNY     97  61  30 NE12      29.82S HX  97
LIBERAL        PTSUNNY   97  61  30 NE7       29.91F HX  97
$$

KSZ066>073-081>083-090>101-012200-
SOUTHEAST KANSAS

CITY           SKY/WX    TMP DP  RH WIND       PRES   REMARKS
CHANUTE        LGT RAIN  83  75  77 S15       29.81F
COFFEYVILLE    LGT RAIN  89  73  59 S10       29.84S HX  97
HUTCHINSON     PTSUNNY   96  62  32 NW6       29.79S HX  97
MEDICINE LODGE   N/A    100  62  28 VRB6      29.77F HX 101
PARSONS        CLOUDY    85  76  74 S9        29.84F
WICHITA INTL   CLOUDY    94  67  41 S7        29.77F HX  97
WICHITA JABRA  CLOUDY    91  69  48 S8        29.78F HX  96
WINFIELD       CLOUDY    97  60  29 S14G23    29.80S HX  97
$$

KSZ007>012-019>026-033>040-048>060-102>105-012200-
NORTHEAST KANSAS

CITY           SKY/WX    TMP DP  RH WIND       PRES   REMARKS
CONCORDIA      SUNNY     91  68  46 E8        29.82S HX  95
EMPORIA        CLOUDY    85  71  63 NW5       29.79R
LAWRENCE       PTSUNNY   88  74  63 S10       29.79F HX  96
MANHATTAN      SUNNY     95  64  35 VRB6      29.78R HX  97
OLATHE IND     PTSUNNY   83  74  74 SE9       29.83S
OLATHE EXE     PTSUNNY   82  73  74 S13       29.82F
SALINA         SUNNY     94  62  34 CALM      29.79S
TOPEKA BILLARD MOSUNNY   91  69  48 SW8       29.78F HX  96
TOPEKA FORBES  MOSUNNY   93  68  43 S12       29.79S HX  97
$$



USA.gov is the U.S. government's official web portal to all federal, state and local government web resources and services.